ARIANE 5 DEB (SYLDA), 42694

Orbit data source: Space-Track

ARIANE 5 DEB (SYLDA), 42694 is space debris in HEO originally from a launch on Thu, 04 May 2017 UTC launched from the French Guiana (FRGUI). Debris objects in space refer to the collection of defunct objects orbiting the Earth. Examples of debris include non-operational satellites, rocket bodies, and fragments generated from explosions, collisions, or faulty payload assembly.

Loading next visibility...
Identifier
42694, 2017-023D
Orbit
HEO
Country
Flag of FRFR
Related business
Manufacturer
ADS/Bremen
Mission
Spacecraft
Bus & Motor
SYLDA 5, Unknown motor
Mass
440 kg wet, 440 kg dry
Launch date (UTC)
2017-05-04 (9 years ago)
Launch vehicle
Unknown
Launch site
French Guiana (FRGUI)
Object type
Payload
Rocket body
Debris
Shape & HBR
Cyl, 2.8 m
Radar Cross Section
27.391 m², Large (>1 m²)

Expand to show TLE details & history
Last TLE update: 2 days ago

TLE from 2 days ago
0 ARIANE 5 DEB (SYLDA)
1 42694U 17023D   26171.18931731 -.00000103  00000-0 -41826-3 0  9998
2 42694   3.7040 188.5156 5466937 178.2568 185.0027  4.56145640116323
Epoch: 2026-06-20T04:32Z
TLE epoch observation values (Epoch: 2026-06-20T04:32:37.015Z)
Latitude
-0.00006°
Longitude
-148.03265°
Altitude
17,352.743 km
Speed
2.765 km/s
True Right ascension
12h 34m 06s
True Declination
0° 00' 00"
Sunlit
Object was in daylight at epoch
Visualization orbit readout
Latitude
Unknown
Longitude
Unknown
Altitude
Unknown
Speed
Unknown
Apparent Right ascension
Unknown
Apparent Declination
Unknown
Sunlit
N/A
Visualization observer readout
Local Sidereal Time
00:55:23
Azimuth
Unknown
Elevation
Unknown
Doppler factor
Unknown
Orbital elements
Apogee altitude
17,383.408 km
Perigee altitude
585.917 km
Semi-major axis
15,362.8 km
Eccentricity
0.54669
Inclination
3.704°
RAAN
188.5156°
Arg. of periapsis
178.2568°
True anomaly
181.75169°
Mean anomaly
185.0027°
Eccentric anomaly
183.23506°
Mean motion
1.13982 °/min
Orbital period
315.84 mins
BSTAR
-0.00041826
Loading maneuver chart data...
Computing Atmospheric mass density...
Loading historical data...
Loading historical data...
Loading historical data...
Loading historical data...
Loading historical data...
Loading historical data...
Loading historical data...
Other satellites on launch #23 in the year 2017 (2017-05-04 UTC)

Documentation

Showing up to 5 results
|